This is the latest recevied weather packets stored in our database for station/object N0QV. If no packets are shown the sender has not sent any weather packets the latest 10 day(s).
| Time | Temp. | Humidity | Pressure | Rain* | Wind** | Luminosity | Snow |
|---|---|---|---|---|---|---|---|
| 1788537374 | 31.67° C | 67% | 1011.6 hPa | 0 mm | - | 603 W/m² | - |
| 1788537068 | 31.67° C | 67% | 1011.3 hPa | 0 mm | - | 573 W/m² | - |
| 1788536762 | 31.11° C | 66% | 1011.7 hPa | 0 mm | - | 593 W/m² | - |
| 1788536456 | 30° C | 70% | 1011.5 hPa | 0 mm | - | 594 W/m² | - |
| 1788536156 | 30.56° C | 71% | 1011.4 hPa | 0 mm | - | 498 W/m² | - |
| 1788535853 | 31.11° C | 67% | 1011.6 hPa | 0 mm | - | 520 W/m² | - |
| 1788535548 | 30.56° C | 68% | 1011.4 hPa | 0 mm | - | 548 W/m² | - |
| 1788535243 | 30° C | 68% | 1011.6 hPa | 0 mm | - | 519 W/m² | - |
| 1788534938 | 30° C | 71% | 1011.5 hPa | 0 mm | - | 456 W/m² | - |
| 1788534637 | 29.44° C | 70% | 1011.3 hPa | 0 mm | - | 437 W/m² | - |
| 1788534332 | 29.44° C | 71% | 1011.6 hPa | 0 mm | - | 393 W/m² | - |
| 1788534027 | 29.44° C | 74% | 1011.4 hPa | 0 mm | - | 408 W/m² | - |
| 1788533751 | 28.89° C | 72% | 1011.3 hPa | 0 mm | - | 407 W/m² | - |
| 1788533422 | 29.44° C | 71% | 1011.5 hPa | 0 mm | - | 376 W/m² | - |
| 1788533118 | 28.89° C | 76% | 1011.4 hPa | 0 mm | - | 337 W/m² | - |
| 1788532814 | 28.89° C | 74% | 1011.2 hPa | 0 mm | - | 329 W/m² | - |
| 1788532509 | 28.89° C | 74% | 1011.4 hPa | 0 mm | - | 308 W/m² | - |
| 1788532206 | 28.33° C | 73% | 1011.2 hPa | 0 mm | - | 304 W/m² | - |
| 1788531902 | 28.33° C | 74% | 1011.5 hPa | 0 mm | - | 54 W/m² | - |
| 1788531601 | 28.33° C | 75% | 1011.4 hPa | 0 mm | - | 304 W/m² | - |
| 1788531296 | 28.33° C | 74% | 1011.2 hPa | 0 mm | - | 249 W/m² | - |
| 1788530993 | 28.33° C | 75% | 1011.2 hPa | 0 mm | - | 228 W/m² | - |
| 1788530693 | 27.78° C | 75% | 1011.2 hPa | 0 mm | - | 223 W/m² | - |
| 1788530391 | 27.78° C | 77% | 1011.2 hPa | 0 mm | - | 51 W/m² | - |
| 1788530086 | 27.78° C | 76% | 1011.4 hPa | 0 mm | - | 51 W/m² | - |
* Rain latest hour (hover to see other rain measurements)
** Current wind speed in m/s (hover to see current wind gust speed)